Location: Columbia
(38.9520°N, 92.3340°W)
Time: 21:11:07
(UTC-05:00)

SL-08 RB Rocket - Visible Passes

Search period start: 27 August 2016 00:00
Search period end: 06 September 2016 00:00
Orbit: 648 x 685 km, 98.0° (Epoch: 26 August)

Date Brightness Start Highest point End Pass type
(mag) Time Alt. Az. Time Alt. Az. Time Alt. Az.
27 Aug 5.5 21:33:41 18° ENE 21:33:41 18° ENE 21:36:19 10° NNE visible
27 Aug 5.6 23:11:50 28° NW 23:11:50 28° NW 23:14:19 10° NNW visible
28 Aug 4.9 22:05:54 31° NE 22:05:54 31° NE 22:08:55 10° N visible
28 Aug 6.4 23:44:03 15° WNW 23:44:03 15° WNW 23:45:14 10° NW visible
29 Aug 5.0 22:38:07 37° N 22:38:07 37° N 22:40:55 10° N visible
30 Aug 5.6 21:32:11 17° NE 21:32:11 17° NE 21:34:24 10° NNE visible
30 Aug 5.8 23:10:20 25° NW 23:10:20 25° NW 23:12:29 10° NNW visible
31 Aug 5.2 22:04:23 27° NNE 22:04:23 27° NNE 22:07:02 10° N visible
31 Aug 6.5 23:42:32 14° NW 23:42:32 14° NW 23:43:28 10° NW visible
01 Sep 5.3 22:36:37 31° N 22:36:37 31° N 22:39:04 10° N visible
02 Sep 5.7 21:30:41 15° NE 21:30:41 15° NE 21:32:27 10° NNE visible
02 Sep 6.0 23:08:50 23° NW 23:08:50 23° NW 23:10:40 10° NNW visible
03 Sep 5.4 22:02:54 24° NNE 22:02:54 24° NNE 22:05:09 10° N visible
03 Sep 6.7 23:41:04 13° NW 23:41:04 13° NW 23:41:41 10° NW visible
04 Sep 5.5 22:35:08 27° N 22:35:08 27° N 22:37:13 10° N visible
05 Sep 5.8 21:29:11 14° NE 21:29:11 14° NE 21:30:30 10° NNE visible
05 Sep 6.1 23:07:20 20° NNW 23:07:20 20° NNW 23:08:50 10° NNW visible
